SWR458 OEJN-LSZH

Flight info

Callsign SWR458
Flight time N/A
Altitude 40000
Route MIGDA L677 CVO L617 TANSA DCT KOR DCT TUMBO DCT RODON DCT VAKSU DCT MINTU DCT ROTAR DCT MOBDO DCT EKPEB DCT SOTOV/N0501F300 P66 KPT L856 NEGRA
Aircraft A359/H-SDE2E3GHIJ3J4J5LM1ORWXY/LB1D1

Departure

Time 2026-04-30 09:19
Airport King Abdulaziz International Airport (OEJN)

Arrival

Time N/A
Airport Zürich Airport (LSZH)
Time Latitude Longitude Altitude Speed Heading
2026-04-30 08:50 21.66408 39.17406 42 ft 0 kts 212°
2026-04-30 09:11 21.66417 39.17411 40 ft 2 kts 212°
2026-04-30 09:11 21.66431 39.17421 41 ft 2 kts 212°
2026-04-30 09:11 21.66444 39.17430 39 ft 2 kts 212°
2026-04-30 09:12 21.66458 39.17439 38 ft 2 kts 212°
2026-04-30 09:12 21.66472 39.17448 39 ft 2 kts 212°
2026-04-30 09:12 21.66486 39.17455 39 ft 2 kts 175°
2026-04-30 09:12 21.66501 39.17449 37 ft 2 kts 130°
2026-04-30 09:13 21.66503 39.17446 37 ft 0 kts 126°
2026-04-30 09:15 21.66499 39.17453 39 ft 4 kts 122°
2026-04-30 09:15 21.66491 39.17486 39 ft 5 kts 94°
2026-04-30 09:16 21.66498 39.17533 42 ft 7 kts 76°
2026-04-30 09:16 21.66517 39.17591 42 ft 9 kts 70°
2026-04-30 09:16 21.66541 39.17662 42 ft 11 kts 70°
2026-04-30 09:16 21.66570 39.17748 42 ft 13 kts 70°
2026-04-30 09:17 21.66604 39.17846 42 ft 15 kts 69°
2026-04-30 09:17 21.66637 39.17942 43 ft 8 kts 69°
2026-04-30 09:17 21.66663 39.18001 43 ft 9 kts 51°
2026-04-30 09:17 21.66721 39.18016 43 ft 9 kts 350°
2026-04-30 09:18 21.66788 39.17992 43 ft 11 kts 339°
2026-04-30 09:18 21.66936 39.17933 43 ft 47 kts 340°
2026-04-30 09:18 21.67449 39.17730 39 ft 110 kts 340°
2026-04-30 09:18 21.68344 39.17378 43 ft 162 kts 338°
2026-04-30 09:19 21.69337 39.16997 907 ft 144 kts 339°
2026-04-30 09:19 21.70329 39.16665 1450 ft 154 kts 343°
2026-04-30 09:19 21.71426 39.16423 1768 ft 172 kts 347°
2026-04-30 09:19 21.72692 39.16219 2021 ft 196 kts 354°
2026-04-30 09:20 21.74085 39.16550 2387 ft 217 kts 24°
2026-04-30 09:20 21.75449 39.17435 2703 ft 241 kts 31°
2026-04-30 09:20 21.76871 39.18473 3275 ft 251 kts 31°
2026-04-30 09:20 21.78312 39.19522 3925 ft 257 kts 31°
2026-04-30 09:21 21.79810 39.20596 4606 ft 262 kts 31°
2026-04-30 09:21 21.81354 39.21694 5191 ft 269 kts 30°
2026-04-30 09:21 21.82943 39.22816 5705 ft 277 kts 30°
2026-04-30 09:21 21.84570 39.23964 5897 ft 280 kts 30°
2026-04-30 09:22 21.86210 39.25121 5936 ft 283 kts 30°
2026-04-30 09:22 21.87857 39.26281 5938 ft 283 kts 31°
2026-04-30 09:22 21.89507 39.27443 5933 ft 283 kts 30°
2026-04-30 09:22 21.91159 39.28605 5933 ft 284 kts 30°
2026-04-30 09:23 21.92855 39.29621 5944 ft 282 kts 18°
2026-04-30 09:23 21.94760 39.29890 5939 ft 275 kts 349°
2026-04-30 09:23 21.96585 39.29361 5937 ft 272 kts 338°
2026-04-30 09:23 21.98360 39.28651 5941 ft 273 kts 336°
2026-04-30 09:24 22.00135 39.27924 5930 ft 273 kts 337°
2026-04-30 09:24 22.01912 39.27208 5932 ft 272 kts 338°
2026-04-30 09:24 22.03692 39.26501 5939 ft 272 kts 338°
2026-04-30 09:24 22.05467 39.25779 5938 ft 273 kts 335°
2026-04-30 09:25 22.07053 39.24735 5936 ft 271 kts 316°
2026-04-30 09:25 22.08204 39.23162 6010 ft 267 kts 300°
2026-04-30 09:25 22.09144 39.21429 6438 ft 269 kts 298°
2026-04-30 09:25 22.10070 39.19673 7149 ft 270 kts 298°
2026-04-30 09:26 22.11006 39.17903 7870 ft 273 kts 297°
2026-04-30 09:26 22.11956 39.16116 8603 ft 277 kts 297°
2026-04-30 09:26 22.12923 39.14303 9348 ft 281 kts 297°
2026-04-30 09:26 22.13902 39.12471 10103 ft 283 kts 297°
2026-04-30 09:27 22.14895 39.10607 10498 ft 299 kts 297°
2026-04-30 09:27 22.15963 39.08605 10791 ft 316 kts 298°
2026-04-30 09:27 22.17089 39.06496 11096 ft 332 kts 298°
2026-04-30 09:27 22.18267 39.04291 11380 ft 347 kts 298°
2026-04-30 09:28 22.19491 39.02000 11709 ft 357 kts 298°
2026-04-30 09:28 22.20744 38.99657 12200 ft 362 kts 298°
2026-04-30 09:28 22.22008 38.97291 12696 ft 366 kts 298°
2026-04-30 09:28 22.23281 38.94906 12915 ft 367 kts 298°
2026-04-30 09:29 22.24566 38.92523 12943 ft 368 kts 300°
2026-04-30 09:29 22.26148 38.90340 12941 ft 373 kts 314°
2026-04-30 09:29 22.28252 38.88745 13059 ft 380 kts 330°
2026-04-30 09:29 22.30660 38.87541 13605 ft 382 kts 333°
2026-04-30 09:30 22.33096 38.86387 14154 ft 383 kts 333°
2026-04-30 09:30 22.35540 38.85227 14630 ft 385 kts 333°
2026-04-30 09:30 22.37999 38.84053 15119 ft 387 kts 333°
2026-04-30 09:30 22.40468 38.82871 15599 ft 390 kts 333°
2026-04-30 09:31 22.42958 38.81677 16075 ft 392 kts 333°
2026-04-30 09:31 22.45458 38.80476 16561 ft 394 kts 333°
2026-04-30 09:31 22.47937 38.79284 17043 ft 397 kts 333°
2026-04-30 09:31 22.50468 38.78067 17538 ft 399 kts 333°
2026-04-30 09:32 22.53017 38.76840 18012 ft 402 kts 332°
2026-04-30 09:32 22.55578 38.75607 18466 ft 405 kts 332°
2026-04-30 09:32 22.58159 38.74364 18885 ft 407 kts 332°
2026-04-30 09:32 22.60757 38.73111 19321 ft 410 kts 332°
2026-04-30 09:33 22.63371 38.71851 19790 ft 412 kts 332°
2026-04-30 09:33 22.66006 38.70595 20236 ft 416 kts 333°
2026-04-30 09:33 22.68648 38.69398 20701 ft 419 kts 334°
2026-04-30 09:33 22.71358 38.68209 21176 ft 422 kts 334°
2026-04-30 09:34 22.74092 38.67020 21653 ft 425 kts 334°
2026-04-30 09:34 22.76844 38.65822 22136 ft 428 kts 334°
2026-04-30 09:34 22.79613 38.64608 22622 ft 431 kts 333°
2026-04-30 09:34 22.82400 38.63379 23099 ft 434 kts 333°
2026-04-30 09:35 22.85203 38.62137 23586 ft 437 kts 333°
2026-04-30 09:35 22.88024 38.60885 24034 ft 440 kts 333°
2026-04-30 09:35 22.90862 38.59623 24500 ft 442 kts 333°
2026-04-30 09:35 22.93672 38.58372 24980 ft 443 kts 332°
2026-04-30 09:36 22.96533 38.57099 25451 ft 445 kts 332°
2026-04-30 09:36 22.99408 38.55818 25924 ft 448 kts 332°
2026-04-30 09:36 23.02291 38.54533 26393 ft 450 kts 332°
2026-04-30 09:36 23.05193 38.53239 26862 ft 452 kts 332°
2026-04-30 09:37 23.08106 38.51940 27324 ft 454 kts 332°
2026-04-30 09:37 23.11037 38.50633 27784 ft 456 kts 332°
2026-04-30 09:37 23.13977 38.49320 28233 ft 458 kts 332°
2026-04-30 09:37 23.16936 38.47999 28685 ft 461 kts 331°
2026-04-30 09:38 23.19871 38.46688 29081 ft 464 kts 331°
2026-04-30 09:38 23.22861 38.45351 29486 ft 466 kts 331°
2026-04-30 09:38 23.25869 38.44006 29901 ft 468 kts 331°
2026-04-30 09:38 23.28889 38.42655 30225 ft 471 kts 331°
2026-04-30 09:39 23.31923 38.41297 30530 ft 473 kts 331°
2026-04-30 09:39 23.34974 38.39931 30831 ft 475 kts 330°
2026-04-30 09:39 23.38035 38.38559 31113 ft 477 kts 330°
2026-04-30 09:39 23.41109 38.37182 31382 ft 479 kts 330°
2026-04-30 09:40 23.44158 38.35814 31635 ft 481 kts 330°
2026-04-30 09:40 23.47259 38.34423 31926 ft 483 kts 330°
2026-04-30 09:40 23.50361 38.33032 32282 ft 482 kts 330°
2026-04-30 09:40 23.53457 38.31644 32686 ft 480 kts 330°
2026-04-30 09:41 23.56541 38.30262 33049 ft 479 kts 329°
2026-04-30 09:41 23.59618 38.28880 33406 ft 478 kts 329°
2026-04-30 09:41 23.62690 38.27498 33753 ft 477 kts 329°
2026-04-30 09:41 23.65753 38.26120 34069 ft 476 kts 329°
2026-04-30 09:42 23.68773 38.24761 34324 ft 476 kts 329°
2026-04-30 09:42 23.71838 38.23379 34568 ft 476 kts 329°
2026-04-30 09:42 23.74897 38.21998 34837 ft 476 kts 329°
2026-04-30 09:42 23.77952 38.20620 35117 ft 474 kts 329°
2026-04-30 09:43 23.81001 38.19244 35388 ft 474 kts 329°
2026-04-30 09:43 23.84041 38.17871 35688 ft 472 kts 329°
2026-04-30 09:43 23.87073 38.16502 35956 ft 471 kts 329°
2026-04-30 09:43 23.90099 38.15134 36199 ft 471 kts 329°
2026-04-30 09:44 23.93124 38.13765 36407 ft 470 kts 329°
2026-04-30 09:44 23.96108 38.12414 36626 ft 470 kts 329°
2026-04-30 09:44 23.99127 38.11047 36857 ft 470 kts 329°
2026-04-30 09:44 24.02142 38.09681 37076 ft 469 kts 329°
2026-04-30 09:45 24.05155 38.08315 37333 ft 468 kts 329°
2026-04-30 09:45 24.08161 38.06954 37611 ft 466 kts 329°
2026-04-30 09:45 24.11157 38.05595 37841 ft 466 kts 329°
2026-04-30 09:45 24.14100 38.04146 38033 ft 460 kts 324°
2026-04-30 09:46 24.16831 38.02389 38230 ft 454 kts 319°
2026-04-30 09:46 24.19472 38.00507 38423 ft 452 kts 319°
2026-04-30 09:46 24.22044 37.98613 38602 ft 451 kts 318°
2026-04-30 09:46 24.24632 37.96673 38736 ft 451 kts 317°
2026-04-30 09:47 24.27217 37.94719 38873 ft 451 kts 317°
2026-04-30 09:47 24.29796 37.92769 39030 ft 450 kts 317°
2026-04-30 09:47 24.32374 37.90821 39156 ft 451 kts 317°
2026-04-30 09:47 24.34964 37.88869 39319 ft 451 kts 317°
2026-04-30 09:48 24.37546 37.86927 39485 ft 450 kts 317°
2026-04-30 09:48 24.40127 37.84986 39628 ft 450 kts 317°
2026-04-30 09:48 24.45265 37.81118 39810 ft 451 kts 317°
2026-04-30 09:49 24.50448 37.77214 39887 ft 452 kts 317°
2026-04-30 09:49 24.55639 37.73302 39886 ft 452 kts 317°
2026-04-30 09:50 24.60820 37.69393 39907 ft 451 kts 317°
2026-04-30 09:50 24.65958 37.65513 39905 ft 451 kts 317°
2026-04-30 09:51 24.71124 37.61606 39906 ft 450 kts 316°
2026-04-30 09:51 24.76284 37.57698 39922 ft 450 kts 316°
2026-04-30 09:52 24.81454 37.53780 39918 ft 452 kts 317°
2026-04-30 09:52 24.86588 37.49887 39923 ft 451 kts 316°
2026-04-30 09:53 24.91748 37.45967 39927 ft 450 kts 316°
2026-04-30 09:53 24.96896 37.42055 39922 ft 449 kts 316°
2026-04-30 09:54 25.02032 37.38147 39937 ft 448 kts 316°
2026-04-30 09:54 25.07152 37.34248 39930 ft 447 kts 316°
2026-04-30 09:55 25.12230 37.30375 39930 ft 447 kts 316°
2026-04-30 09:55 25.17339 37.26474 39931 ft 447 kts 316°
2026-04-30 09:56 25.22447 37.22571 39943 ft 446 kts 316°
2026-04-30 09:56 25.27548 37.18671 39936 ft 445 kts 316°
2026-04-30 09:57 25.32604 37.14805 39933 ft 445 kts 316°
2026-04-30 09:57 25.37689 37.10903 39933 ft 445 kts 316°
2026-04-30 09:58 25.42771 37.07005 39936 ft 445 kts 316°
2026-04-30 09:58 25.47855 37.03096 39934 ft 445 kts 316°
2026-04-30 09:59 25.57972 36.95308 39942 ft 443 kts 316°
2026-04-30 10:00 25.65551 36.89465 39940 ft 441 kts 315°
2026-04-30 10:01 25.73064 36.83666 39930 ft 440 kts 315°
2026-04-30 10:02 25.80601 36.77836 39925 ft 440 kts 315°
2026-04-30 10:02 25.85623 36.73943 39938 ft 440 kts 315°
2026-04-30 10:03 25.90639 36.70055 39921 ft 440 kts 315°
2026-04-30 10:03 25.95617 36.66191 39949 ft 439 kts 315°
2026-04-30 10:04 26.00623 36.62303 39925 ft 438 kts 315°
2026-04-30 10:04 26.05618 36.58418 39922 ft 438 kts 315°
2026-04-30 10:05 26.10577 36.54556 39938 ft 438 kts 315°
2026-04-30 10:05 26.15567 36.50666 39939 ft 438 kts 315°
2026-04-30 10:06 26.20091 36.46306 39938 ft 426 kts 307°
2026-04-30 10:06 26.24247 36.41620 39939 ft 425 kts 306°
2026-04-30 10:07 26.28344 36.36877 39979 ft 425 kts 305°
2026-04-30 10:07 26.32405 36.32169 39919 ft 424 kts 305°
2026-04-30 10:08 26.36497 36.27437 39909 ft 424 kts 305°
2026-04-30 10:08 26.40593 36.22704 39920 ft 424 kts 305°
2026-04-30 10:09 26.44686 36.17969 39923 ft 424 kts 305°
2026-04-30 10:09 26.48751 36.13262 39922 ft 424 kts 305°
2026-04-30 10:10 26.52841 36.08521 39924 ft 424 kts 305°
2026-04-30 10:10 26.56930 36.03776 39926 ft 424 kts 305°
2026-04-30 10:11 26.61017 35.99029 39926 ft 424 kts 305°
2026-04-30 10:11 26.65076 35.94308 39926 ft 424 kts 305°
2026-04-30 10:12 26.69161 35.89550 39931 ft 424 kts 305°
2026-04-30 10:12 26.73248 35.84785 39933 ft 425 kts 305°
2026-04-30 10:13 26.77339 35.80012 39932 ft 425 kts 305°
2026-04-30 10:13 26.81398 35.75274 39939 ft 425 kts 305°
2026-04-30 10:14 26.85483 35.70497 39933 ft 425 kts 305°
2026-04-30 10:14 26.91608 35.63325 39933 ft 425 kts 305°
2026-04-30 10:15 26.95688 35.58541 39932 ft 425 kts 305°
2026-04-30 10:15 26.99741 35.53782 39930 ft 424 kts 305°
2026-04-30 10:16 27.03817 35.48992 39969 ft 425 kts 305°
2026-04-30 10:17 27.09939 35.41785 39923 ft 426 kts 305°
2026-04-30 10:17 27.16035 35.34600 39938 ft 426 kts 305°
2026-04-30 10:18 27.20113 35.29786 39936 ft 425 kts 305°
2026-04-30 10:19 27.26231 35.22553 39929 ft 425 kts 305°
2026-04-30 10:19 27.30302 35.17735 39947 ft 425 kts 305°
2026-04-30 10:20 27.34369 35.12914 39922 ft 425 kts 305°
2026-04-30 10:20 27.40440 35.05708 39967 ft 425 kts 305°
2026-04-30 10:21 27.44511 35.00867 39926 ft 427 kts 305°
2026-04-30 10:21 27.48596 34.96005 39921 ft 427 kts 305°
2026-04-30 10:22 27.52699 34.91155 39931 ft 429 kts 307°
2026-04-30 10:22 27.57033 34.86544 39930 ft 432 kts 309°
2026-04-30 10:23 27.61477 34.81978 39933 ft 432 kts 309°
2026-04-30 10:23 27.65889 34.77379 39930 ft 432 kts 308°
2026-04-30 10:24 27.70274 34.72747 39945 ft 432 kts 308°
2026-04-30 10:24 27.74621 34.68131 39937 ft 432 kts 308°
2026-04-30 10:25 27.79003 34.63475 39945 ft 433 kts 309°
2026-04-30 10:25 27.83402 34.58798 39954 ft 434 kts 309°
2026-04-30 10:26 27.87803 34.54117 39958 ft 435 kts 309°
2026-04-30 10:26 27.92173 34.49463 39965 ft 435 kts 309°
2026-04-30 10:27 27.96575 34.44769 39966 ft 435 kts 309°
2026-04-30 10:27 28.00782 34.39904 39967 ft 430 kts 303°
2026-04-30 10:28 28.04619 34.34730 39967 ft 429 kts 302°
2026-04-30 10:28 28.08368 34.29538 39968 ft 429 kts 302°
2026-04-30 10:29 28.12140 34.24293 39965 ft 429 kts 302°
2026-04-30 10:29 28.15915 34.19044 39965 ft 430 kts 303°
2026-04-30 10:30 28.19710 34.13775 39970 ft 432 kts 303°
2026-04-30 10:30 28.23490 34.08532 39982 ft 433 kts 303°
2026-04-30 10:31 28.27287 34.03239 39971 ft 431 kts 303°
2026-04-30 10:31 28.31075 33.97951 40000 ft 433 kts 302°
2026-04-30 10:32 28.34879 33.92641 39996 ft 435 kts 303°
2026-04-30 10:32 28.38693 33.87319 39989 ft 434 kts 303°
2026-04-30 10:33 28.42471 33.82039 39991 ft 433 kts 303°
2026-04-30 10:33 28.46265 33.76725 39987 ft 433 kts 303°
2026-04-30 10:34 28.50049 33.71419 39986 ft 432 kts 303°
2026-04-30 10:34 28.53834 33.66108 40022 ft 432 kts 303°
2026-04-30 10:35 28.57603 33.60817 39984 ft 434 kts 303°
2026-04-30 10:35 28.61409 33.55476 39989 ft 435 kts 303°
2026-04-30 10:36 28.65224 33.50125 39989 ft 435 kts 303°
2026-04-30 10:36 28.69023 33.44761 39988 ft 435 kts 303°
2026-04-30 10:37 28.72818 33.39391 39992 ft 436 kts 303°
2026-04-30 10:37 28.76594 33.34049 39987 ft 435 kts 303°
2026-04-30 10:38 28.80394 33.28669 39990 ft 436 kts 303°
2026-04-30 10:38 28.84192 33.23284 39991 ft 436 kts 303°
2026-04-30 10:39 28.87985 33.17900 39992 ft 435 kts 303°
2026-04-30 10:39 28.91742 33.12559 39995 ft 436 kts 303°
2026-04-30 10:40 28.95540 33.07152 39994 ft 436 kts 303°
2026-04-30 10:40 28.99336 33.01743 39995 ft 436 kts 303°
2026-04-30 10:41 29.03128 32.96332 40001 ft 436 kts 303°
2026-04-30 10:41 29.06893 32.90952 39998 ft 436 kts 303°
2026-04-30 10:42 29.10684 32.85528 39999 ft 437 kts 303°
2026-04-30 10:42 29.14474 32.80099 40007 ft 437 kts 303°
2026-04-30 10:43 29.18263 32.74664 40004 ft 437 kts 303°
2026-04-30 10:43 29.22024 32.69261 40013 ft 437 kts 303°
2026-04-30 10:44 29.25810 32.63817 40014 ft 437 kts 303°
2026-04-30 10:44 29.29534 32.58451 40018 ft 437 kts 303°
2026-04-30 10:45 29.33285 32.52997 40017 ft 437 kts 303°
2026-04-30 10:45 29.36989 32.47586 40027 ft 438 kts 303°
2026-04-30 10:46 29.40812 32.42002 40020 ft 439 kts 303°
2026-04-30 10:46 29.44576 32.36503 40029 ft 438 kts 303°
2026-04-30 10:47 29.47684 32.31957 40031 ft 438 kts 303°
2026-04-30 10:47 29.52067 32.25536 40037 ft 438 kts 303°
2026-04-30 10:48 29.55161 32.20997 40037 ft 439 kts 303°
2026-04-30 10:48 29.59584 32.14502 40039 ft 438 kts 303°
2026-04-30 10:49 29.62666 32.09969 40037 ft 438 kts 303°
2026-04-30 10:49 29.66396 32.04477 40043 ft 438 kts 303°
2026-04-30 10:50 29.70804 31.97977 40037 ft 438 kts 303°
2026-04-30 10:50 29.74546 31.92451 40046 ft 438 kts 303°
2026-04-30 10:51 29.77619 31.87907 40043 ft 438 kts 303°
2026-04-30 10:51 29.81915 31.81415 40050 ft 438 kts 302°
2026-04-30 10:52 29.84903 31.76697 40046 ft 437 kts 302°
2026-04-30 10:52 29.88513 31.71002 40045 ft 436 kts 302°
2026-04-30 10:53 29.92655 31.64519 40046 ft 437 kts 302°
2026-04-30 10:53 29.95739 31.59753 40028 ft 437 kts 302°
2026-04-30 10:54 29.99315 31.54233 40023 ft 437 kts 302°
2026-04-30 10:54 30.02978 31.48564 40022 ft 436 kts 302°
2026-04-30 10:55 30.07164 31.42071 40021 ft 435 kts 302°
2026-04-30 10:55 30.09997 31.38155 40021 ft 439 kts 310°
2026-04-30 10:56 30.14400 31.33247 40020 ft 441 kts 312°
2026-04-30 10:56 30.18904 31.28428 40020 ft 442 kts 312°
2026-04-30 10:57 30.23389 31.23642 40024 ft 442 kts 312°
2026-04-30 10:57 30.27890 31.18813 40011 ft 441 kts 311°
2026-04-30 10:58 30.32377 31.13980 40017 ft 441 kts 311°
2026-04-30 10:58 30.36858 31.09141 40017 ft 441 kts 311°
2026-04-30 10:59 30.41341 31.04296 40010 ft 440 kts 311°
2026-04-30 10:59 30.45787 30.99485 40019 ft 441 kts 311°
2026-04-30 11:00 30.50264 30.94632 40048 ft 440 kts 312°
2026-04-30 11:00 30.54708 30.89813 40016 ft 436 kts 312°
2026-04-30 11:01 30.59134 30.85007 40020 ft 436 kts 312°
2026-04-30 11:01 30.63528 30.80225 40021 ft 436 kts 312°
2026-04-30 11:02 30.67948 30.75412 40013 ft 436 kts 312°
2026-04-30 11:02 30.72367 30.70592 40015 ft 436 kts 312°
2026-04-30 11:03 30.76783 30.65769 40016 ft 435 kts 312°
2026-04-30 11:04 30.83371 30.58564 40037 ft 435 kts 312°
2026-04-30 11:04 30.87777 30.53737 40017 ft 435 kts 312°
2026-04-30 11:05 30.92175 30.48912 40020 ft 434 kts 312°
2026-04-30 11:05 30.96574 30.44079 40022 ft 434 kts 312°
2026-04-30 11:06 31.00940 30.39277 40038 ft 434 kts 312°
2026-04-30 11:06 31.05310 30.34441 40033 ft 431 kts 310°
2026-04-30 11:07 31.08958 30.28988 40036 ft 424 kts 297°
2026-04-30 11:07 31.11274 30.22709 40038 ft 421 kts 288°
2026-04-30 11:08 31.13085 30.16207 40041 ft 421 kts 287°
2026-04-30 11:08 31.14812 30.09717 40046 ft 421 kts 287°
2026-04-30 11:09 31.16559 30.03196 40053 ft 421 kts 287°
2026-04-30 11:09 31.18460 29.96737 40046 ft 422 kts 292°
2026-04-30 11:10 31.21428 29.90814 40046 ft 424 kts 302°
2026-04-30 11:10 31.24869 29.85199 40048 ft 425 kts 303°
2026-04-30 11:11 31.28354 29.79672 40067 ft 425 kts 303°
2026-04-30 11:11 31.31853 29.74102 40056 ft 425 kts 303°
2026-04-30 11:12 31.35334 29.68521 40053 ft 425 kts 303°
2026-04-30 11:12 31.38809 29.62927 40062 ft 425 kts 303°
2026-04-30 11:13 31.42278 29.57332 40063 ft 425 kts 303°
2026-04-30 11:13 31.45724 29.51768 40063 ft 425 kts 303°
2026-04-30 11:14 31.49188 29.46170 40068 ft 424 kts 303°
2026-04-30 11:14 31.52646 29.40573 40064 ft 424 kts 303°
2026-04-30 11:15 31.56098 29.34976 40061 ft 424 kts 303°
2026-04-30 11:15 31.59526 29.29412 40062 ft 424 kts 303°
2026-04-30 11:16 31.62968 29.23802 40059 ft 424 kts 303°
2026-04-30 11:16 31.66405 29.18186 40065 ft 423 kts 303°
2026-04-30 11:17 31.69840 29.12566 40076 ft 424 kts 302°
2026-04-30 11:17 31.73514 29.07132 40077 ft 428 kts 310°
2026-04-30 11:18 31.77954 29.02499 40060 ft 431 kts 315°
2026-04-30 11:18 31.84928 28.95791 40077 ft 432 kts 316°
2026-04-30 11:19 31.89588 28.91330 40066 ft 431 kts 316°
2026-04-30 11:19 31.94228 28.86860 40065 ft 431 kts 316°
2026-04-30 11:20 31.98831 28.82407 40055 ft 431 kts 316°
2026-04-30 11:20 32.03466 28.77916 40071 ft 431 kts 316°
2026-04-30 11:21 32.08104 28.73416 40067 ft 432 kts 316°
2026-04-30 11:21 32.12745 28.68909 40067 ft 432 kts 316°
2026-04-30 11:22 32.17350 28.64432 40066 ft 432 kts 316°
2026-04-30 11:22 32.21985 28.59919 40067 ft 431 kts 316°
2026-04-30 11:23 32.26607 28.55412 40064 ft 431 kts 316°
2026-04-30 11:24 32.33515 28.48664 40087 ft 431 kts 316°
2026-04-30 11:24 32.38144 28.44133 40059 ft 432 kts 316°
2026-04-30 11:25 32.45090 28.37326 40070 ft 432 kts 316°
2026-04-30 11:26 32.54309 28.28270 40063 ft 432 kts 315°
2026-04-30 11:26 32.58927 28.23723 40065 ft 432 kts 315°
2026-04-30 11:27 32.63543 28.19171 40062 ft 431 kts 315°
2026-04-30 11:27 32.68158 28.14615 40061 ft 431 kts 315°
2026-04-30 11:28 32.75041 28.07807 40065 ft 431 kts 315°
2026-04-30 11:29 32.79649 28.03242 40065 ft 431 kts 315°
2026-04-30 11:29 32.86545 27.96399 40067 ft 430 kts 315°
2026-04-30 11:30 32.93430 27.89552 40065 ft 430 kts 315°
2026-04-30 11:31 32.97991 27.85007 40064 ft 431 kts 315°
2026-04-30 11:31 33.02587 27.80421 40061 ft 431 kts 315°
2026-04-30 11:32 33.07185 27.75828 40062 ft 431 kts 315°
2026-04-30 11:32 33.11780 27.71231 40064 ft 431 kts 315°
2026-04-30 11:33 33.18637 27.64359 40064 ft 431 kts 315°
2026-04-30 11:33 33.23226 27.59751 40061 ft 431 kts 315°
2026-04-30 11:34 33.27818 27.55134 40070 ft 431 kts 315°
2026-04-30 11:34 33.32406 27.50515 40061 ft 432 kts 315°
2026-04-30 11:35 33.36963 27.45920 40065 ft 431 kts 315°
2026-04-30 11:35 33.41550 27.41289 40061 ft 431 kts 315°
2026-04-30 11:36 33.46129 27.36660 40059 ft 431 kts 315°
2026-04-30 11:36 33.50705 27.32025 40064 ft 431 kts 315°
2026-04-30 11:37 33.55248 27.27418 40061 ft 431 kts 315°
2026-04-30 11:37 33.59819 27.22776 40064 ft 431 kts 315°
2026-04-30 11:38 33.64398 27.18117 40061 ft 432 kts 315°
2026-04-30 11:38 33.68976 27.13456 40061 ft 431 kts 315°
2026-04-30 11:39 33.73520 27.08822 40059 ft 431 kts 315°
2026-04-30 11:39 33.78092 27.04152 40058 ft 431 kts 315°
2026-04-30 11:40 33.82663 26.99476 40059 ft 431 kts 315°
2026-04-30 11:40 33.87230 26.94798 40059 ft 431 kts 315°
2026-04-30 11:41 33.91768 26.90142 40060 ft 432 kts 315°
2026-04-30 11:41 33.96345 26.85438 40059 ft 433 kts 315°
2026-04-30 11:42 34.00920 26.80739 40055 ft 432 kts 315°
2026-04-30 11:42 34.05660 26.76250 40056 ft 434 kts 318°
2026-04-30 11:43 34.10487 26.71881 40058 ft 434 kts 318°
2026-04-30 11:43 34.15265 26.67507 40059 ft 434 kts 317°
2026-04-30 11:44 34.20049 26.63070 40055 ft 434 kts 317°
2026-04-30 11:44 34.24837 26.58602 40055 ft 435 kts 317°
2026-04-30 11:45 34.29631 26.54123 40058 ft 436 kts 317°
2026-04-30 11:45 34.34393 26.49671 40053 ft 435 kts 317°
2026-04-30 11:46 34.39185 26.45185 40054 ft 435 kts 317°
2026-04-30 11:46 34.43973 26.40696 40067 ft 435 kts 317°
2026-04-30 11:47 34.48761 26.36199 40086 ft 435 kts 317°
2026-04-30 11:47 34.53522 26.31720 40061 ft 437 kts 317°
2026-04-30 11:48 34.58326 26.27195 40052 ft 437 kts 317°
2026-04-30 11:48 34.63126 26.22669 40056 ft 437 kts 317°
2026-04-30 11:49 34.67925 26.18136 40057 ft 437 kts 317°
2026-04-30 11:49 34.72689 26.13629 40057 ft 437 kts 317°
2026-04-30 11:50 34.77479 26.09090 40060 ft 437 kts 317°
2026-04-30 11:50 34.82273 26.04540 40060 ft 438 kts 317°
2026-04-30 11:51 34.87077 25.99974 40062 ft 438 kts 317°
2026-04-30 11:51 34.91884 25.95398 40061 ft 438 kts 317°
2026-04-30 11:52 34.96683 25.90823 40058 ft 438 kts 317°
2026-04-30 11:52 35.01452 25.86270 40062 ft 438 kts 317°
2026-04-30 11:53 35.06249 25.81682 40068 ft 438 kts 317°
2026-04-30 11:53 35.11042 25.77091 40064 ft 438 kts 317°
2026-04-30 11:54 35.15842 25.72487 40065 ft 439 kts 317°
2026-04-30 11:54 35.20643 25.67875 40066 ft 439 kts 317°
2026-04-30 11:55 35.25441 25.63259 40051 ft 439 kts 317°
2026-04-30 11:55 35.30204 25.58670 40066 ft 439 kts 317°
2026-04-30 11:56 35.34993 25.54047 40046 ft 439 kts 317°
2026-04-30 11:56 35.39788 25.49411 39983 ft 441 kts 317°
2026-04-30 11:57 35.42206 25.47065 39784 ft 445 kts 317°
2026-04-30 11:57 35.44642 25.44693 39629 ft 448 kts 317°
2026-04-30 11:57 35.49502 25.39942 39658 ft 444 kts 316°
2026-04-30 11:58 35.51907 25.37583 39781 ft 441 kts 316°
2026-04-30 11:58 35.54291 25.35238 39859 ft 439 kts 316°